Regional Weather Roundup
Issued by NWS

Home | Current Version | Previous Version | Graphics & Text | Print | Product List | Glossary On
Versions: 1 2 3 4 5 6 7 8 9 10 11 12 13 14 15 16 17 18 19 20 21 22 23 24 25 26 27 28 29 30 31 32 33 34 35 36 37 38 39 40 41 42 43 44 45 46 47 48 49 50
000
ASUS45 KCYS 061610
RWRWY

WYOMING REGIONAL WEATHER ROUNDUP
NATIONAL WEATHER SERVICE CHEYENNE WY
1000 AM MDT FRI MAY 06 2016

NOTE:  "FAIR" INDICATES FEW OR NO CLOUDS BELOW 12,000 FEET
WITH NO SIGNIFICANT WEATHER AND/OR OBSTRUCTIONS TO VISIBILITY.

WYZ001-061700-
YELLOWSTONE NATIONAL PARK

CITY           SKY/WX    TMP DP  RH WIND       PRES   REMARKS
LK YELLOWSTONE   N/A     50  33  52 VRB3      30.19R
W YELLOWSTONE  NOT AVBL

$$
WYZ002>013-054>058-071-098>099-061700-
NORTHERN WYOMING

CITY           SKY/WX    TMP DP  RH WIND       PRES   REMARKS
JACKSON        NOT AVBL
CODY           PTSUNNY   55  37  50 N24G33    30.15S
GREYBULL       FAIR      71  38  29 VRB6      29.98R
WORLAND        FAIR      62  42  47 NW14      30.06R HAZE
SHERIDAN       FAIR      58  44  60 NW22      30.16R HAZE
BUFFALO        FAIR      58  42  55 N30G45    30.13R HAZE
GILLETTE       FAIR      62  44  51 N25G32    30.06R
HULETT         FAIR      64  45  48 N10       30.05R
NEWCASTLE      FAIR      73  41  31 W5        29.97S

$$
WYZ014>020-022>026-101>103-061700-
CENTRAL WYOMING

CITY           SKY/WX    TMP DP  RH WIND       PRES   REMARKS
BIG PINEY      PTSUNNY   54  37  52 N6        30.05F
PINEDALE       PTSUNNY   57  36  44 NE17G26   30.07F
DUBOIS         PTSUNNY   52  34  50 CALM      30.11F
LANDER         CLOUDY    58  39  49 N7        30.07R
RIVERTON       CLOUDY    57  40  52 N21       30.05R
CASPER         FAIR      62  41  46 N17G25    30.05R
DOUGLAS        FAIR      64  47  53 VRB3      29.99S

$$
WYZ021-027>030-104>119-061700-
SOUTHERN WYOMING

CITY           SKY/WX    TMP DP  RH WIND       PRES   REMARKS
EVANSTON       PTSUNNY   45  42  89 N7        30.02F FOG
KEMMERER         N/A     52  37  58 E6        30.06R
FORT BRIDGER   CLOUDY    46  46 100 W15       30.08R
ROCK SPRINGS   PTSUNNY   56  38  50 SE6       30.03F
DIXON          PTSUNNY   62  36  37 CALM      30.06R
RAWLINS        FAIR      58  34  40 W9        30.05F
SARATOGA       FAIR      59  34  38 NE6G18    30.08F
LARAMIE        FAIR      61  38  42 CALM      30.07S
CHEYENNE       FAIR      67  43  41 SW7       30.01F
TORRINGTON     FAIR      68  47  46 SE9       29.94S
PINE BLUFFS    FAIR      61  48  63 CALM      30.00S

$$



USA.gov is the U.S. government's official web portal to all federal, state and local government web resources and services.